[Iaude] MPEC V54: 2023 VK1 [a=2.41,e=0.59,i=6.2,H=25.5]
    mpec at marsden.cfa.harvard.edu 
    mpec at marsden.cfa.harvard.edu
       
    Sun Nov  5 18:46:59 EST 2023
    
    
  
M.P.E.C. 2023-V54                              Issued 2023 November 5, 23:45 UT
     The Minor Planet Electronic Circulars contain information on unusual
         minor planets, routine data on comets and natural satellites,
         and occasional editorial announcements.  They are published
    on behalf of Division F of the International Astronomical Union by the
          Minor Planet Center, Smithsonian Astrophysical Observatory,
                          Cambridge, MA 02138, U.S.A.
			  
             Prepared using the Tamkin Foundation Computer Network
                              MPC at CFA.HARVARD.EDU
            URL https://www.minorplanetcenter.net/    ISSN 1523-6714
                                    2023 VK1                                    
Observations:
     K23V01K*1C2023 11 02.23182123 32 58.110+44 18 59.29         20.61GVEV054G96
     K23V01K 1C2023 11 02.23705323 32 59.143+44 19 35.40         20.59GVEV054G96
     K23V01K 1C2023 11 02.24752923 33 01.098+44 20 47.47         20.45GVEV054G96
     K23V01K KC2023 11 02.29511123 33 10.570+44 26 11.40         21.17GVEV054I52
     K23V01K KC2023 11 02.29659623 33 10.897+44 26 21.98         20.58GVEV054I52
     K23V01K KC2023 11 02.29807623 33 11.200+44 26 31.67         20.97GVEV054I52
     K23V01K KC2023 11 02.29956623 33 11.524+44 26 42.04         20.99GVEV054I52
     K23V01K KC2023 11 03.10010923 37 16.810+46 08 21.20         20.62GVEV054I52
     K23V01K KC2023 11 03.10173123 37 17.230+46 08 34.30               VEV054I52
     K23V01K KC2023 11 03.10498023 37 18.020+46 09 01.50         20.70GVEV054I52
     K23V01K KC2023 11 03.16060223 37 27.14 +46 16 19.7          21.2 GVEV054H21
     K23V01K KC2023 11 03.16200123 37 27.49 +46 16 30.9          21.5 GVEV054H21
     K23V01K KC2023 11 03.16759523 37 28.95 +46 17 15.5                VEV054H21
     K23V01K KC2023 11 03.17318523 37 30.43 +46 18 00.1          21.2 GVEV054H21
     K23V01K KC2023 11 05.86682300 00 09.63 +53 56 20.1          20.6 GVEV054L01
     K23V01K IC2023 11 05.86951800 00 11.38 +53 56 54.6          20.5 GVEV054L01
     K23V01K KC2023 11 05.87087600 00 12.38 +53 57 11.3          20.5 GVEV054L01
     K23V01K KC2023 11 05.87285200 00 13.69 +53 57 35.8          20.4 GVEV054L01
Observer details:
G96 Mt. Lemmon Survey.  Observer J. B. Fazekas.  Measurers E. C. Beshore, D.
    Fay, J. B. Fazekas, D. C. Fuls, A. R. Gibbs, A. D. Grauer, H. Groeller, J.
    K. Hogan, R. A. Kowalski, S. M. Larson, G. J. Leonard, D. Rankin, R. L.
    Seaman, F. C. Shelly, K. W. Wierzchos.  1.5-m reflector + 10K CCD.
H21 Astronomical Research Observatory, Westfield.  Observer R. Holmes.
    Measurers T. Linder, R. Holmes, L. Horn.  0.76-m f/3.0 astrograph + CCD.
I52 Steward Observatory, Mt. Lemmon Station.  Observers R. A. Kowalski, D.
    Rankin.  Measurers E. C. Beshore, D. Fay, J. B. Fazekas, D. C. Fuls, A. R.
    Gibbs, A. D. Grauer, H. Groeller, J. K. Hogan, R. A. Kowalski, S. M.
    Larson, G. J. Leonard, D. Rankin, R. L. Seaman, F. C. Shelly, K. W.
    Wierzchos.  1.0-m prime focus + CCD.
L01 Visnjan Observatory, Tican.  Observer K. Korlevic.  1.0-m f/2.9 reflector
    + CCD.
Orbital elements:
2023 VK1                                                 Earth MOID = 0.0011 AU
Epoch 2023 Sept. 13.0 TT = JDT 2460200.5                Veres                   
M 340.31619              (2000.0)            P               Q                  
n   0.26390646     Peri.  188.51366     +0.37369833     -0.92281735             
a   2.4071475      Node   239.58902     +0.85727328     +0.38214559             
e   0.5915496      Incl.    6.22954     +0.35416392     +0.04871218             
P   3.73           H   25.52          G   0.15           U   8                  
Residuals in seconds of arc
231102 G96  0.2-  0.0     231102 I52  0.1+  0.1+    231103 H21  0.0   0.1+
231102 G96  0.3+  0.1+    231103 I52  0.1+  0.0     231103 H21  0.3+  0.2+
231102 G96  0.2-  0.1+    231103 I52  0.2+  0.4-    231105 L01  0.0   0.4-
231102 I52  0.2-  0.3-    231103 I52  0.0   0.3-    231105 L01  0.5-  0.4+
231102 I52  0.0   0.2+    231103 H21  0.2-  0.1+    231105 L01  0.3+  0.1+
231102 I52  0.0   0.2-    231103 H21  0.3-  0.1+    231105 L01  0.2+  0.1-
Ephemeris:
2023 VK1                 a,e,i = 2.41, 0.59, 6                   q = 0.9832
Date    TT    R. A. (2000) Decl.     Delta      r    Elong.  Phase     V
2023 10 06    23 21 50.6 +26 06 51   0.2106  1.1884   150.9    24.2    23.6
...
2023 10 21    23 16 08.9 +31 45 54   0.1240  1.0942   140.5    35.4    22.6
...
2023 10 29    23 21 37.2 +37 59 25   0.08207 1.0532   135.1    41.8    21.8
...
2023 11 04    23 42 38.7 +48 17 39   0.05270 1.0278   131.7    46.1    20.9
2023 11 05    23 50 42.0 +51 05 45   0.04815 1.0240   131.1    46.8    20.8
2023 11 06    00 01 56.3 +54 24 02   0.04378 1.0204   130.5    47.6    20.6
...
2023 11 12    07 05 45.8 +68 34 42   0.02604 1.0021   117.0    61.7    19.8
...
2023 11 20    10 07 29.8 +11 07 46   0.04590 0.9870    87.1    90.2    22.0
...
2023 12 05    10 33 07.4 -10 01 06   0.1165  0.9894    88.5    84.8    23.8
M. P. C. Staff               (C) Copyright 2023 MPC           M.P.E.C. 2023-V54
    
    
More information about the Iaude
mailing list